Time,TemperatureF,DewpointF,PressureIn,WindDirection,WindDirectionDegrees,WindSpeedMPH,WindSpeedGustMPH,Humidity,HourlyPrecipIn,Conditions,Clouds,dailyrainin,SoftwareType,DateUTC
2013-04-22 00:03:00,45.0,36.0,30.37,NNE,21,0.0,-999.0,71,-99.99,,,-99.99,,2013-04-22 04:03:00,
2013-04-22 00:12:00,45.0,36.0,30.37,NNE,21,0.0,-999.0,71,-99.99,,,-99.99,,2013-04-22 04:12:00,
2013-04-22 00:23:00,44.0,36.0,30.37,NNE,21,0.0,-999.0,72,-99.99,,,-99.99,,2013-04-22 04:23:00,
2013-04-22 00:33:00,44.0,37.0,30.37,NNE,21,0.0,-999.0,76,-99.99,,,-99.99,,2013-04-22 04:33:00,
2013-04-22 00:43:00,44.0,37.0,30.37,NNE,21,0.0,-999.0,76,-99.99,,,-99.99,,2013-04-22 04:43:00,
2013-04-22 00:52:00,43.0,37.0,30.37,NNE,21,0.0,-999.0,79,-99.99,,,-99.99,,2013-04-22 04:52:00,
2013-04-22 01:03:00,43.0,37.0,30.37,NNE,21,0.0,-999.0,79,-99.99,,,-99.99,,2013-04-22 05:03:00,
2013-04-22 01:12:00,43.0,37.0,30.37,NNE,21,0.0,-999.0,79,-99.99,,,-99.99,,2013-04-22 05:12:00,
2013-04-22 01:22:00,43.0,36.0,30.36,NNE,21,0.0,-999.0,75,-99.99,,,-99.99,,2013-04-22 05:22:00,
2013-04-22 01:33:00,43.0,34.0,30.36,NNE,21,0.0,-999.0,71,-99.99,,,-99.99,,2013-04-22 05:33:00,
2013-04-22 01:42:00,43.0,34.0,30.36,NNE,21,0.0,-999.0,71,-99.99,,,-99.99,,2013-04-22 05:42:00,
2013-04-22 01:52:00,43.0,33.0,30.36,NNE,21,0.0,-999.0,68,-99.99,,,-99.99,,2013-04-22 05:52:00,
2013-04-22 02:02:00,43.0,34.0,30.35,NNE,21,0.0,-999.0,70,-99.99,,,-99.99,,2013-04-22 06:02:00,
2013-04-22 02:12:00,43.0,34.0,30.35,NNE,21,0.0,-999.0,70,-99.99,,,-99.99,,2013-04-22 06:12:00,
2013-04-22 02:21:00,42.0,33.0,30.35,NNE,21,0.0,-999.0,71,-99.99,,,-99.99,,2013-04-22 06:21:00,
2013-04-22 02:32:00,42.0,34.0,30.35,NNE,21,0.0,-999.0,73,-99.99,,,-99.99,,2013-04-22 06:32:00,
2013-04-22 02:42:00,42.0,34.0,30.35,NNE,21,0.0,-999.0,73,-99.99,,,-99.99,,2013-04-22 06:42:00,
2013-04-22 02:52:00,41.0,33.0,30.35,NNE,21,0.0,-999.0,73,-99.99,,,-99.99,,2013-04-22 06:52:00,
2013-04-22 03:01:00,41.0,34.0,30.34,NNE,21,0.0,-999.0,76,-99.99,,,-99.99,,2013-04-22 07:01:00,
2013-04-22 03:12:00,41.0,34.0,30.34,NNE,21,0.0,-999.0,76,-99.99,,,-99.99,,2013-04-22 07:12:00,
2013-04-22 03:21:00,40.0,33.0,30.33,NNE,21,0.0,-999.0,75,-99.99,,,-99.99,,2013-04-22 07:21:00,
2013-04-22 03:32:00,40.0,34.0,30.33,NNE,21,0.0,-999.0,78,-99.99,,,-99.99,,2013-04-22 07:32:00,
2013-04-22 03:42:00,40.0,34.0,30.33,NNE,21,0.0,-999.0,78,-99.99,,,-99.99,,2013-04-22 07:42:00,
2013-04-22 03:52:00,39.0,33.0,30.32,NNE,21,0.0,-999.0,78,-99.99,,,-99.99,,2013-04-22 07:52:00,
2013-04-22 04:02:00,39.0,33.0,30.32,NNE,21,0.0,-999.0,79,-99.99,,,-99.99,,2013-04-22 08:02:00,
2013-04-22 04:11:00,39.0,33.0,30.32,NNE,21,0.0,-999.0,79,-99.99,,,-99.99,,2013-04-22 08:11:00,
2013-04-22 04:22:00,39.0,34.0,30.33,NNE,21,0.0,-999.0,81,-99.99,,,-99.99,,2013-04-22 08:22:00,
2013-04-22 04:32:00,38.0,33.0,30.33,NNE,21,0.0,-999.0,82,-99.99,,,-99.99,,2013-04-22 08:32:00,
2013-04-22 04:42:00,38.0,33.0,30.33,NNE,21,0.0,-999.0,82,-99.99,,,-99.99,,2013-04-22 08:42:00,
2013-04-22 04:52:00,38.0,33.0,30.33,NNE,21,0.0,-999.0,82,-99.99,,,-99.99,,2013-04-22 08:52:00,
2013-04-22 05:01:00,38.0,34.0,30.32,NNE,21,0.0,-999.0,84,-99.99,,,-99.99,,2013-04-22 09:01:00,
2013-04-22 05:11:00,38.0,34.0,30.32,NNE,21,0.0,-999.0,84,-99.99,,,-99.99,,2013-04-22 09:11:00,
2013-04-22 05:21:00,38.0,34.0,30.32,NNE,21,0.0,-999.0,85,-99.99,,,-99.99,,2013-04-22 09:21:00,
2013-04-22 05:33:00,38.0,34.0,30.32,NNE,21,0.0,-999.0,85,-99.99,,,-99.99,,2013-04-22 09:33:00,
2013-04-22 05:42:00,38.0,34.0,30.32,NNE,21,0.0,-999.0,85,-99.99,,,-99.99,,2013-04-22 09:42:00,
2013-04-22 05:52:00,37.0,33.0,30.32,NNE,21,0.0,-999.0,85,-99.99,,,-99.99,,2013-04-22 09:52:00,
2013-04-22 06:03:00,37.0,33.0,30.33,NNE,21,0.0,-999.0,86,-99.99,,,-99.99,,2013-04-22 10:03:00,
2013-04-22 06:12:00,37.0,33.0,30.33,NNE,21,0.0,-999.0,86,-99.99,,,-99.99,,2013-04-22 10:12:00,
2013-04-22 06:22:00,37.0,34.0,30.33,NNE,21,0.0,-999.0,87,-99.99,,,-99.99,,2013-04-22 10:22:00,
2013-04-22 06:32:00,37.0,34.0,30.34,NNE,21,0.0,-999.0,87,-99.99,,,-99.99,,2013-04-22 10:32:00,
2013-04-22 06:42:00,37.0,34.0,30.34,NNE,21,0.0,-999.0,87,-99.99,,,-99.99,,2013-04-22 10:42:00,
2013-04-22 06:52:00,37.0,34.0,30.34,NNE,21,0.0,-999.0,88,-99.99,,,-99.99,,2013-04-22 10:52:00,
2013-04-22 07:02:00,36.0,33.0,30.34,NNE,21,0.0,-999.0,89,-99.99,,,-99.99,,2013-04-22 11:02:00,
2013-04-22 07:12:00,36.0,33.0,30.34,NNE,21,0.0,-999.0,89,-99.99,,,-99.99,,2013-04-22 11:12:00,
2013-04-22 07:22:00,36.0,33.0,30.34,NNE,21,0.0,-999.0,89,-99.99,,,-99.99,,2013-04-22 11:22:00,
2013-04-22 07:32:00,36.0,33.0,30.35,NNE,21,0.0,-999.0,89,-99.99,,,-99.99,,2013-04-22 11:32:00,
2013-04-22 07:42:00,36.0,33.0,30.35,NNE,21,0.0,-999.0,89,-99.99,,,-99.99,,2013-04-22 11:42:00,
2013-04-22 07:52:00,37.0,34.0,30.35,NNE,21,0.0,-999.0,90,-99.99,,,-99.99,,2013-04-22 11:52:00,
2013-04-22 08:02:00,38.0,35.0,30.36,NNE,21,0.0,-999.0,90,-99.99,,,-99.99,,2013-04-22 12:02:00,
2013-04-22 08:12:00,38.0,35.0,30.36,NNE,21,0.0,-999.0,90,-99.99,,,-99.99,,2013-04-22 12:12:00,
2013-04-22 08:21:00,41.0,37.0,30.36,NNE,21,0.0,-999.0,87,-99.99,,,-99.99,,2013-04-22 12:21:00,
2013-04-22 08:32:00,45.0,38.0,30.36,NNE,33,0.0,-999.0,76,-99.99,,,-99.99,,2013-04-22 12:32:00,
2013-04-22 08:42:00,45.0,38.0,30.36,NNE,33,0.0,-999.0,76,-99.99,,,-99.99,,2013-04-22 12:42:00,
2013-04-22 08:52:00,48.0,38.0,30.36,ESE,122,1.0,-999.0,67,-99.99,,,-99.99,,2013-04-22 12:52:00,
2013-04-22 09:01:00,50.0,37.0,30.36,ESE,113,1.0,-999.0,61,-99.99,,,-99.99,,2013-04-22 13:01:00,
2013-04-22 09:11:00,50.0,37.0,30.36,ESE,113,1.0,-999.0,61,-99.99,,,-99.99,,2013-04-22 13:11:00,
2013-04-22 09:22:00,52.0,38.0,30.36,SE,146,1.0,-999.0,59,-99.99,,,-99.99,,2013-04-22 13:22:00,
2013-04-22 09:32:00,54.0,39.0,30.36,ESE,122,2.0,-999.0,57,-99.99,,,-99.99,,2013-04-22 13:32:00,
2013-04-22 09:42:00,54.0,39.0,30.36,ESE,122,2.0,-999.0,57,-99.99,,,-99.99,,2013-04-22 13:42:00,
2013-04-22 09:52:00,55.0,40.0,30.36,ESE,123,1.0,-999.0,57,-99.99,,,-99.99,,2013-04-22 13:52:00,
2013-04-22 10:02:00,57.0,41.0,30.36,ESE,123,1.0,-999.0,54,-99.99,,,-99.99,,2013-04-22 14:02:00,
2013-04-22 10:12:00,58.0,39.0,30.36,SSE,153,3.0,-999.0,50,-99.99,,,-99.99,,2013-04-22 14:12:00,
2013-04-22 10:21:00,58.0,39.0,30.36,SSE,153,3.0,-999.0,50,-99.99,,,-99.99,,2013-04-22 14:21:00,
2013-04-22 10:33:00,60.0,42.0,30.36,SSE,155,2.0,-999.0,52,-99.99,,,-99.99,,2013-04-22 14:33:00,
2013-04-22 10:42:00,60.0,42.0,30.36,SSE,155,2.0,-999.0,52,-99.99,,,-99.99,,2013-04-22 14:42:00,
2013-04-22 10:52:00,60.0,41.0,30.35,SSE,162,2.0,-999.0,49,-99.99,,,-99.99,,2013-04-22 14:52:00,
2013-04-22 11:02:00,62.0,41.0,30.35,SE,144,4.0,-999.0,46,-99.99,,,-99.99,,2013-04-22 15:02:00,
2013-04-22 11:12:00,62.0,41.0,30.35,SE,144,4.0,-999.0,46,-99.99,,,-99.99,,2013-04-22 15:12:00,
2013-04-22 11:22:00,63.0,40.0,30.35,ESE,109,3.0,-999.0,42,-99.99,,,-99.99,,2013-04-22 15:22:00,
2013-04-22 11:33:00,63.0,41.0,30.35,WNW,282,3.0,-999.0,45,-99.99,,,-99.99,,2013-04-22 15:33:00,
2013-04-22 11:43:00,63.0,41.0,30.35,WNW,282,3.0,-999.0,45,-99.99,,,-99.99,,2013-04-22 15:43:00,
2013-04-22 11:53:00,64.0,41.0,30.35,SW,229,5.0,-999.0,43,-99.99,,,-99.99,,2013-04-22 15:53:00,
2013-04-22 12:03:00,65.0,42.0,30.34,WSW,250,2.0,-999.0,43,-99.99,,,-99.99,,2013-04-22 16:03:00,
2013-04-22 12:12:00,65.0,42.0,30.34,WSW,250,2.0,-999.0,43,-99.99,,,-99.99,,2013-04-22 16:12:00,
2013-04-22 12:23:00,65.0,40.0,30.34,SW,223,5.0,-999.0,40,-99.99,,,-99.99,,2013-04-22 16:23:00,
2013-04-22 12:33:00,66.0,42.0,30.33,NNW,329,5.0,-999.0,42,-99.99,,,-99.99,,2013-04-22 16:33:00,
2013-04-22 12:42:00,66.0,42.0,30.33,NNW,329,5.0,-999.0,42,-99.99,,,-99.99,,2013-04-22 16:42:00,
2013-04-22 12:52:00,66.0,42.0,30.33,West,267,6.0,-999.0,42,-99.99,,,-99.99,,2013-04-22 16:52:00,
2013-04-22 13:02:00,66.0,40.0,30.32,WNW,294,5.0,-999.0,39,-99.99,,,-99.99,,2013-04-22 17:02:00,
2013-04-22 13:12:00,66.0,40.0,30.32,WNW,294,5.0,-999.0,39,-99.99,,,-99.99,,2013-04-22 17:12:00,
2013-04-22 13:22:00,67.0,41.0,30.31,NW,311,2.0,-999.0,39,-99.99,,,-99.99,,2013-04-22 17:22:00,
2013-04-22 13:32:00,67.0,44.0,30.30,WNW,285,3.0,-999.0,44,-99.99,,,-99.99,,2013-04-22 17:32:00,
2013-04-22 13:42:00,67.0,44.0,30.30,WNW,285,3.0,-999.0,44,-99.99,,,-99.99,,2013-04-22 17:42:00,
2013-04-22 13:52:00,68.0,41.0,30.29,West,269,3.0,-999.0,38,-99.99,,,-99.99,,2013-04-22 17:52:00,
2013-04-22 14:02:00,68.0,41.0,30.28,SSW,208,3.0,-999.0,37,-99.99,,,-99.99,,2013-04-22 18:02:00,
2013-04-22 14:12:00,68.0,41.0,30.28,SSW,208,3.0,-999.0,37,-99.99,,,-99.99,,2013-04-22 18:12:00,
2013-04-22 14:22:00,68.0,43.0,30.27,SE,142,3.0,-999.0,40,-99.99,,,-99.99,,2013-04-22 18:22:00,
2013-04-22 14:32:00,67.0,37.0,30.27,SSW,206,3.0,-999.0,33,-99.99,,,-99.99,,2013-04-22 18:32:00,
2013-04-22 14:42:00,67.0,37.0,30.27,SSW,206,3.0,-999.0,33,-99.99,,,-99.99,,2013-04-22 18:42:00,
2013-04-22 14:52:00,68.0,41.0,30.26,SSW,206,0.0,-999.0,37,-99.99,,,-99.99,,2013-04-22 18:52:00,
2013-04-22 15:01:00,67.0,39.0,30.26,West,273,4.0,-999.0,36,-99.99,,,-99.99,,2013-04-22 19:01:00,
2013-04-22 15:12:00,67.0,39.0,30.26,West,273,4.0,-999.0,36,-99.99,,,-99.99,,2013-04-22 19:12:00,
2013-04-22 15:22:00,69.0,38.0,30.24,East,81,2.0,-999.0,32,-99.99,,,-99.99,,2013-04-22 19:22:00,
2013-04-22 15:32:00,70.0,42.0,30.23,NW,315,2.0,-999.0,36,-99.99,,,-99.99,,2013-04-22 19:32:00,
2013-04-22 15:42:00,70.0,42.0,30.23,NW,315,2.0,-999.0,36,-99.99,,,-99.99,,2013-04-22 19:42:00,
2013-04-22 15:52:00,70.0,40.0,30.23,South,187,3.0,-999.0,33,-99.99,,,-99.99,,2013-04-22 19:52:00,
2013-04-22 16:02:00,70.0,40.0,30.23,South,187,3.0,-999.0,33,-99.99,,,-99.99,,2013-04-22 20:02:00,
2013-04-22 16:11:00,70.0,40.0,30.23,South,187,3.0,-999.0,33,-99.99,,,-99.99,,2013-04-22 20:11:00,
2013-04-22 16:22:00,71.0,41.0,30.22,NE,42,1.0,-999.0,34,-99.99,,,-99.99,,2013-04-22 20:22:00,
2013-04-22 16:32:00,71.0,38.0,30.21,ESE,109,2.0,-999.0,30,-99.99,,,-99.99,,2013-04-22 20:32:00,
2013-04-22 16:42:00,71.0,38.0,30.21,ESE,109,2.0,-999.0,30,-99.99,,,-99.99,,2013-04-22 20:42:00,
2013-04-22 16:52:00,70.0,38.0,30.20,West,281,1.0,-999.0,31,-99.99,,,-99.99,,2013-04-22 20:52:00,
2013-04-22 17:02:00,71.0,37.0,30.19,WNW,291,0.0,-999.0,29,-99.99,,,-99.99,,2013-04-22 21:02:00,
2013-04-22 17:12:00,71.0,37.0,30.19,WNW,291,0.0,-999.0,29,-99.99,,,-99.99,,2013-04-22 21:12:00,
2013-04-22 17:21:00,71.0,38.0,30.19,NE,34,2.0,-999.0,30,-99.99,,,-99.99,,2013-04-22 21:21:00,
2013-04-22 17:33:00,72.0,38.0,30.19,East,81,1.0,-999.0,29,-99.99,,,-99.99,,2013-04-22 21:33:00,
2013-04-22 17:43:00,72.0,38.0,30.19,East,81,1.0,-999.0,29,-99.99,,,-99.99,,2013-04-22 21:43:00,
2013-04-22 17:53:00,72.0,38.0,30.19,East,81,1.0,-999.0,29,-99.99,,,-99.99,,2013-04-22 21:53:00,
2013-04-22 18:03:00,72.0,36.0,30.18,East,94,2.0,-999.0,27,-99.99,,,-99.99,,2013-04-22 22:03:00,
2013-04-22 18:12:00,72.0,36.0,30.18,East,94,2.0,-999.0,27,-99.99,,,-99.99,,2013-04-22 22:12:00,
2013-04-22 18:22:00,71.0,37.0,30.18,East,81,4.0,-999.0,29,-99.99,,,-99.99,,2013-04-22 22:22:00,
2013-04-22 18:33:00,72.0,37.0,30.17,East,94,0.0,-999.0,28,-99.99,,,-99.99,,2013-04-22 22:33:00,
2013-04-22 18:42:00,72.0,37.0,30.17,East,94,0.0,-999.0,28,-99.99,,,-99.99,,2013-04-22 22:42:00,
2013-04-22 18:52:00,72.0,35.0,30.17,East,85,1.0,-999.0,26,-99.99,,,-99.99,,2013-04-22 22:52:00,
2013-04-22 19:02:00,73.0,38.0,30.17,East,85,0.0,-999.0,28,-99.99,,,-99.99,,2013-04-22 23:02:00,
2013-04-22 19:11:00,72.0,41.0,30.18,NNE,17,1.0,-999.0,32,-99.99,,,-99.99,,2013-04-22 23:11:00,
2013-04-22 19:22:00,72.0,41.0,30.18,NNE,17,1.0,-999.0,32,-99.99,,,-99.99,,2013-04-22 23:22:00,
2013-04-22 19:33:00,71.0,40.0,30.17,North,355,2.0,-999.0,32,-99.99,,,-99.99,,2013-04-22 23:33:00,
2013-04-22 19:42:00,71.0,40.0,30.17,North,355,2.0,-999.0,32,-99.99,,,-99.99,,2013-04-22 23:42:00,
2013-04-22 19:52:00,69.0,39.0,30.17,NW,312,3.0,-999.0,34,-99.99,,,-99.99,,2013-04-22 23:52:00,
2013-04-22 20:02:00,69.0,41.0,30.17,NW,317,1.0,-999.0,36,-99.99,,,-99.99,,2013-04-23 00:02:00,
2013-04-22 20:12:00,69.0,41.0,30.17,NW,317,1.0,-999.0,36,-99.99,,,-99.99,,2013-04-23 00:12:00,
2013-04-22 20:21:00,68.0,41.0,30.17,NW,323,2.0,-999.0,37,-99.99,,,-99.99,,2013-04-23 00:21:00,
2013-04-22 20:32:00,67.0,41.0,30.17,North,350,2.0,-999.0,39,-99.99,,,-99.99,,2013-04-23 00:32:00,
2013-04-22 20:42:00,67.0,41.0,30.17,North,350,2.0,-999.0,39,-99.99,,,-99.99,,2013-04-23 00:42:00,
2013-04-22 20:51:00,66.0,42.0,30.17,North,350,0.0,-999.0,41,-99.99,,,-99.99,,2013-04-23 00:51:00,
2013-04-22 21:01:00,64.0,43.0,30.17,North,350,0.0,-999.0,46,-99.99,,,-99.99,,2013-04-23 01:01:00,
2013-04-22 21:11:00,64.0,43.0,30.17,North,350,0.0,-999.0,46,-99.99,,,-99.99,,2013-04-23 01:11:00,
2013-04-22 21:21:00,62.0,43.0,30.17,North,350,0.0,-999.0,50,-99.99,,,-99.99,,2013-04-23 01:21:00,
2013-04-22 21:32:00,59.0,42.0,30.17,North,350,0.0,-999.0,54,-99.99,,,-99.99,,2013-04-23 01:32:00,
2013-04-22 21:42:00,59.0,42.0,30.17,North,350,0.0,-999.0,54,-99.99,,,-99.99,,2013-04-23 01:42:00,
2013-04-22 21:52:00,57.0,43.0,30.17,North,350,0.0,-999.0,59,-99.99,,,-99.99,,2013-04-23 01:52:00,
2013-04-22 22:02:00,56.0,43.0,30.17,North,350,0.0,-999.0,62,-99.99,,,-99.99,,2013-04-23 02:02:00,
2013-04-22 22:12:00,56.0,43.0,30.17,North,350,0.0,-999.0,62,-99.99,,,-99.99,,2013-04-23 02:12:00,
2013-04-22 22:21:00,54.0,43.0,30.18,North,350,0.0,-999.0,66,-99.99,,,-99.99,,2013-04-23 02:21:00,
2013-04-22 22:32:00,54.0,44.0,30.18,North,350,0.0,-999.0,68,-99.99,,,-99.99,,2013-04-23 02:32:00,
2013-04-22 22:42:00,54.0,44.0,30.18,North,350,0.0,-999.0,68,-99.99,,,-99.99,,2013-04-23 02:42:00,
2013-04-22 22:52:00,53.0,43.0,30.18,North,350,0.0,-999.0,69,-99.99,,,-99.99,,2013-04-23 02:52:00,
2013-04-22 23:02:00,53.0,43.0,30.18,North,350,0.0,-999.0,69,-99.99,,,-99.99,,2013-04-23 03:02:00,
2013-04-22 23:11:00,53.0,43.0,30.18,North,350,0.0,-999.0,69,-99.99,,,-99.99,,2013-04-23 03:11:00,
2013-04-22 23:21:00,53.0,44.0,30.19,North,350,0.0,-999.0,71,-99.99,,,-99.99,,2013-04-23 03:21:00,
2013-04-22 23:33:00,52.0,43.0,30.18,North,350,0.0,-999.0,72,-99.99,,,-99.99,,2013-04-23 03:33:00,
2013-04-22 23:43:00,52.0,43.0,30.18,North,350,0.0,-999.0,72,-99.99,,,-99.99,,2013-04-23 03:43:00,
2013-04-22 23:53:00,51.0,43.0,30.19,North,350,0.0,-999.0,75,-99.99,,,-99.99,,2013-04-23 03:53:00,